sat.trackr.live / text

‹ back to catalog

STARLINK-37025

NORAD 68223 · 2026-053S

PAYLOAD ACTIVE UNKNOWN

§ Identity

Operator
Country
US
Launch date
2026-03-17
Launch site
AFWTR
Launch vehicle
Mass (kg)
RCS (m²)

Purposes: comms

External: N2YO · Heavens-Above · Gunter

§ Orbital elements

Epoch: 2026-09-19T09:11:21.314976Z

Period
93.91 min
Inclination
97.2840°
Eccentricity
0.0002190
Mean motion
15.33438607 rev/d
Perigee alt
464.1 km
Apogee alt
467.1 km
Semi-major
6,843.7 km
B*
5.0052e-4
RAAN
136.1988°
Arg perigee
86.6277°
Mean anomaly
273.5216°
Rev number
2,990

§ Raw data

STARLINK-370251 68223U 26053S   26262.38288559  .00016116  00000+0  50052-3 0  99922 68223  97.2840 136.1988 0002190  86.6277 273.5216 15.33438607 29903

JSON: /api/v1/satellites/68223 · /tle

For live sub-satellite position, see the globe view (requires WebGL).

§ Visibility from observer

Set your observer location to see the next 7 days of passes ≥ 10°. The values pass through the URL so the page stays shareable.

No JS? Fill the form by hand. The geolocation button needs JavaScript.